timestamp,surface_pressure_avg,surface_temp_avg,battery_voltage,lat,long
2019-01-03 00:00:00+00:00,292.0397,1.8,12.73,47.84626,-54.09684
2019-01-03 00:10:00+00:00,280.6047,1.53,12.73,47.84626,-54.09684
2019-01-03 00:20:00+00:00,269.9915,1.27,12.81,47.84626,-54.09684
2019-01-03 00:30:00+00:00,263.8047,1.48,12.81,47.84626,-54.09684
2019-01-03 00:40:00+00:00,257.1397,1.8,12.81,47.84626,-54.09684
2019-01-03 00:50:00+00:00,249.1214,1.8,12.81,47.84626,-54.09684
2019-01-03 01:00:00+00:00,244.3531,1.7,12.73,47.84626,-54.09684
2019-01-03 01:10:00+00:00,239.5448,1.66,12.73,47.84626,-54.09684
2019-01-03 01:20:00+00:00,230.4731,1.78,12.81,47.84626,-54.09684
2019-01-03 01:30:00+00:00,226.3814,1.8,12.81,47.84626,-54.09684
2019-01-03 01:40:00+00:00,226.1231,1.77,12.81,47.84626,-54.09684
2019-01-03 01:50:00+00:00,222.8148,1.6,12.81,47.84626,-54.09684
2019-01-03 02:00:00+00:00,221.1381,1.7,12.73,47.84626,-54.09684
2019-01-03 02:10:00+00:00,222.4415,1.7,12.65,47.84626,-54.09684
2019-01-03 02:20:00+00:00,221.2631,1.7,12.81,47.84626,-54.09684
2019-01-03 02:30:00+00:00,220.8264,1.7,12.81,47.84626,-54.09684
2019-01-03 02:40:00+00:00,221.3481,1.66,12.81,47.84626,-54.09684
2019-01-03 02:50:00+00:00,218.8114,1.6,12.81,47.84626,-54.09684
2019-01-03 03:00:00+00:00,217.6831,1.6,12.73,47.84626,-54.09684
2019-01-03 03:10:00+00:00,220.7198,1.6,12.65,47.84626,-54.09684
2019-01-03 03:20:00+00:00,224.7997,1.5,12.81,47.84626,-54.09684
2019-01-03 03:30:00+00:00,224.9714,1.3,12.81,47.84626,-54.09684
2019-01-03 03:40:00+00:00,228.9798,1.39,12.81,47.84626,-54.09684
2019-01-03 03:50:00+00:00,239.6964,1.67,12.81,47.84626,-54.09684
2019-01-03 04:00:00+00:00,241.0448,1.5,12.73,47.84626,-54.09684
2019-01-03 04:10:00+00:00,235.1331,1.4,12.65,47.84626,-54.09684
2019-01-03 04:20:00+00:00,247.2198,1.4,12.73,47.84626,-54.09684
2019-01-03 04:30:00+00:00,262.1481,1.4,12.73,47.84626,-54.09684
2019-01-03 04:40:00+00:00,260.5998,1.28,12.81,47.84626,-54.09684
2019-01-03 04:50:00+00:00,259.3097,1.4,12.81,47.84626,-54.09684
2019-01-03 05:00:00+00:00,272.4081,1.39,12.73,47.84626,-54.09684
2019-01-03 05:10:00+00:00,283.2114,1.16,12.65,47.84626,-54.09684
2019-01-03 05:20:00+00:00,281.3796,1.4,12.73,47.84626,-54.09684
2019-01-03 05:30:00+00:00,284.3597,1.37,12.73,47.84626,-54.09684
2019-01-03 05:40:00+00:00,299.1197,1.4,12.81,47.84626,-54.09684
2019-01-03 05:50:00+00:00,303.5514,1.2,12.81,47.84626,-54.09684
2019-01-03 06:00:00+00:00,296.6764,1.2,12.73,47.84626,-54.09684
2019-01-03 06:10:00+00:00,301.5264,1.3,12.65,47.84626,-54.09684
2019-01-03 06:20:00+00:00,314.1947,1.3,12.73,47.84626,-54.09684
2019-01-03 06:30:00+00:00,313.443,1.17,12.73,47.84626,-54.09684
2019-01-03 06:40:00+00:00,309.5747,1.2,12.81,47.84626,-54.09684
2019-01-03 06:50:00+00:00,318.2447,1.25,12.81,47.84626,-54.09684
2019-01-03 07:00:00+00:00,327.9747,1.2,12.73,47.84626,-54.09684
2019-01-03 07:10:00+00:00,327.8447,1.2,12.65,47.84626,-54.09684
2019-01-03 07:20:00+00:00,332.4313,1.2,12.73,47.84626,-54.09684
2019-01-03 07:30:00+00:00,340.343,1.26,12.73,47.84626,-54.09684
2019-01-03 07:40:00+00:00,350.8213,1.2,12.73,47.84626,-54.09684
2019-01-03 07:50:00+00:00,360.8013,1.13,12.81,47.84626,-54.09684
2019-01-03 08:00:00+00:00,370.6013,1.19,12.65,47.84626,-54.09684
2019-01-03 08:10:00+00:00,379.728,1.2,12.65,47.84626,-54.09684
2019-01-03 08:20:00+00:00,386.9413,1.2,12.73,47.84626,-54.09684
2019-01-03 08:30:00+00:00,393.5212,1.22,12.73,47.84626,-54.09684
2019-01-03 08:40:00+00:00,395.2479,1.31,12.73,47.84626,-54.09684
2019-01-03 08:50:00+00:00,396.3497,1.4,12.73,47.84626,-54.09684
2019-01-03 09:00:00+00:00,397.0345,1.5,12.65,47.84626,-54.09684
2019-01-03 09:10:00+00:00,399.3379,1.67,12.65,47.84626,-54.09684
2019-01-03 09:20:00+00:00,403.2979,1.8,12.73,47.84626,-54.09684
2019-01-03 09:30:00+00:00,407.3996,1.83,12.73,47.84626,-54.09684
2019-01-03 09:40:00+00:00,412.6362,1.88,12.73,47.84626,-54.09684
2019-01-03 09:50:00+00:00,411.8312,1.68,12.73,47.84626,-54.09684
2019-01-03 10:00:00+00:00,405.6995,1.3,12.65,47.84626,-54.09684
2019-01-03 10:10:00+00:00,406.3229,1.2,12.65,47.84626,-54.09684
2019-01-03 10:20:00+00:00,408.9879,1.27,12.73,47.84626,-54.09684
2019-01-03 10:30:00+00:00,407.3997,1.2,12.73,47.84626,-54.09684
2019-01-03 10:40:00+00:00,404.7612,1.1,12.73,47.84626,-54.09684
2019-01-03 10:50:00+00:00,403.2278,1.2,12.73,47.84626,-54.09684
2019-01-03 11:00:00+00:00,404.2229,1.38,12.65,47.84626,-54.09684
2019-01-03 11:10:00+00:00,402.0095,1.3,12.65,47.84626,-54.09684
2019-01-03 11:20:00+00:00,397.0446,1.3,12.65,47.84626,-54.09684
2019-01-03 11:30:00+00:00,396.7662,1.22,12.73,47.84626,-54.09684
2019-01-03 11:40:00+00:00,395.9713,1.37,13.05,47.84626,-54.09684
2019-01-03 11:50:00+00:00,392.3879,1.4,13.68,47.84626,-54.09684
2019-01-03 12:00:00+00:00,384.0112,1.2,14.16,47.84626,-54.09684
2019-01-03 12:10:00+00:00,370.8346,1.2,15.67,47.84626,-54.09684
2019-01-03 12:20:00+00:00,364.3563,1.18,16.79,47.84626,-54.09684
2019-01-03 12:30:00+00:00,356.9463,1.18,17.03,47.84626,-54.09684
2019-01-03 12:40:00+00:00,350.3513,1.1,17.11,47.84626,-54.09684
2019-01-03 12:50:00+00:00,342.083,1.1,17.18,47.84626,-54.09684
2019-01-03 13:00:00+00:00,333.5697,1.11,16.79,47.84626,-54.09684
2019-01-03 13:10:00+00:00,324.9296,1.18,16.87,47.84626,-54.09684
2019-01-03 13:20:00+00:00,321.0463,1.3,17.03,47.84626,-54.09684
2019-01-03 13:30:00+00:00,313.8964,1.3,16.63,47.84626,-54.09684
2019-01-03 13:40:00+00:00,305.5831,1.2,16.47,47.84626,-54.09684
2019-01-03 13:50:00+00:00,296.9446,1.17,15.99,47.84626,-54.09684
2019-01-03 14:00:00+00:00,294.4647,1.29,15.51,47.84626,-54.09684
2019-01-03 14:10:00+00:00,293.7747,1.39,15.51,47.84626,-54.09684
2019-01-03 14:20:00+00:00,290.7697,1.39,15.6,47.84626,-54.09684
2019-01-03 14:30:00+00:00,286.153,1.2,15.51,47.84626,-54.09684
2019-01-03 14:40:00+00:00,281.8813,1.31,15.51,47.84626,-54.09684
2019-01-03 14:50:00+00:00,277.5547,1.3,15.44,47.84626,-54.09684
2019-01-03 15:00:00+00:00,273.3647,1.2,15.2,47.84626,-54.09684
2019-01-03 15:10:00+00:00,273.1697,1.33,15.27,47.84626,-54.09684
2019-01-03 15:20:00+00:00,271.078,1.4,15.27,47.84626,-54.09684
2019-01-03 15:30:00+00:00,270.0614,1.5,15.2,47.84626,-54.09684
2019-01-03 15:40:00+00:00,268.4747,1.6,15.2,47.84626,-54.09684
2019-01-03 15:50:00+00:00,267.3164,1.7,15.2,47.84626,-54.09684
2019-01-03 16:00:00+00:00,263.2581,1.73,15.04,47.84626,-54.09684
2019-01-03 16:10:00+00:00,260.6614,1.79,15.04,47.84626,-54.09684
2019-01-03 16:20:00+00:00,256.6848,1.8,15.11,47.84626,-54.09684
2019-01-03 16:30:00+00:00,255.1114,1.8,15.11,47.84626,-54.09684
2019-01-03 16:40:00+00:00,256.5264,1.8,15.04,47.84626,-54.09684
2019-01-03 16:50:00+00:00,255.7747,1.8,15.04,47.84626,-54.09684
2019-01-03 17:00:00+00:00,250.0881,1.79,14.96,47.84626,-54.09684
2019-01-03 17:10:00+00:00,250.7031,1.7,14.96,47.84626,-54.09684
2019-01-03 17:20:00+00:00,254.5431,1.7,14.96,47.84626,-54.09684
2019-01-03 17:30:00+00:00,259.3014,1.71,14.96,47.84626,-54.09684
2019-01-03 17:40:00+00:00,258.2614,1.75,14.96,47.84626,-54.09684
2019-01-03 17:50:00+00:00,259.8447,1.71,14.96,47.84626,-54.09684
2019-01-03 18:00:00+00:00,260.3264,1.7,14.8,47.84626,-54.09684
2019-01-03 18:10:00+00:00,258.9497,1.7,14.8,47.84626,-54.09684
2019-01-03 18:20:00+00:00,252.828,1.7,14.88,47.84626,-54.09684
2019-01-03 18:30:00+00:00,257.853,1.7,14.72,47.84626,-54.09684
2019-01-03 18:40:00+00:00,264.7814,1.69,14.72,47.84626,-54.09684
2019-01-03 18:50:00+00:00,267.4998,1.68,14.56,47.84626,-54.09684
2019-01-03 19:00:00+00:00,265.5847,1.67,14.4,47.84626,-54.09684
2019-01-03 19:10:00+00:00,276.0881,1.64,14.24,47.84626,-54.09684
2019-01-03 19:20:00+00:00,282.8514,1.63,14.24,47.84626,-54.09684
2019-01-03 19:30:00+00:00,283.748,1.6,14.16,47.84626,-54.09684
2019-01-03 19:40:00+00:00,285.733,1.54,14.16,47.84626,-54.09684
2019-01-03 19:50:00+00:00,295.913,1.5,14.08,47.84626,-54.09684
2019-01-03 20:00:00+00:00,301.4647,1.5,13.92,47.84626,-54.09684
2019-01-03 20:10:00+00:00,303.4214,1.49,13.76,47.84626,-54.09684
2019-01-03 20:20:00+00:00,310.5763,1.41,13.68,47.84626,-54.09684
2019-01-03 20:30:00+00:00,319.7397,1.43,13.68,47.84626,-54.09684
2019-01-03 20:40:00+00:00,325.8563,1.4,13.6,47.84626,-54.09684
2019-01-03 20:50:00+00:00,331.9246,1.4,13.6,47.84626,-54.09684
2019-01-03 21:00:00+00:00,338.0596,1.39,13.44,47.84626,-54.09684
2019-01-03 21:10:00+00:00,339.4196,1.4,13.29,47.84626,-54.09684
2019-01-03 21:20:00+00:00,340.3496,1.4,13.29,47.84626,-54.09684
2019-01-03 21:30:00+00:00,344.6846,1.4,13.29,47.84626,-54.09684
2019-01-03 21:40:00+00:00,346.6163,1.4,13.29,47.84626,-54.09684
2019-01-03 21:50:00+00:00,344.6279,1.4,13.29,47.84626,-54.09684
2019-01-03 22:00:00+00:00,346.2363,1.4,13.13,47.84626,-54.09684
2019-01-03 22:10:00+00:00,349.0864,1.4,13.05,47.84626,-54.09684
2019-01-03 22:20:00+00:00,350.6746,1.4,13.05,47.84626,-54.09684
2019-01-03 22:30:00+00:00,351.528,1.4,13.05,47.84626,-54.09684
2019-01-03 22:40:00+00:00,350.5397,1.4,13.05,47.84626,-54.09684
2019-01-03 22:50:00+00:00,347.2113,1.39,13.05,47.84626,-54.09684
2019-01-03 23:00:00+00:00,344.5446,1.36,12.97,47.84626,-54.09684
2019-01-03 23:10:00+00:00,343.2546,1.35,12.89,47.84626,-54.09684
2019-01-03 23:20:00+00:00,336.7113,1.35,12.97,47.84626,-54.09684
2019-01-03 23:30:00+00:00,330.6429,1.37,12.97,47.84626,-54.09684
2019-01-03 23:40:00+00:00,328.858,1.38,13.05,47.84626,-54.09684
2019-01-03 23:50:00+00:00,323.7163,1.34,13.05,47.84626,-54.09684
